Location: Mentone
(34.5413°N, 85.5351°W)
Time: 10:51:43
(UTC-05:00)

S-56A Canister/Altair - Visible Passes

Search period start: 23 July 2014 00:00
Search period end: 02 August 2014 00:00
Orbit: 633 x 2503 km, 38.9° (Epoch: 21 July)

Date Brightness Start Highest point End Pass type
(mag) Time Alt. Az. Time Alt. Az. Time Alt. Az.
23 Jul 8.2 02:10:37 59° NE 02:10:37 59° NE 02:14:43 10° ENE visible
23 Jul 8.0 04:08:14 10° WNW 04:13:46 53° N 04:18:11 10° E visible
24 Jul 8.9 01:39:49 38° ENE 01:39:49 38° ENE 01:42:51 10° ENE visible
24 Jul 8.1 03:37:15 17° WNW 03:41:38 54° N 03:46:13 10° ENE visible
24 Jul 10.8 20:53:32 10° SSE 20:53:35 10° SSE 20:53:35 10° SSE visible
24 Jul 11.0 22:50:33 10° SSW 22:51:13 12° SSW 22:51:13 12° SSW visible
25 Jul 9.6 01:09:00 24° ENE 01:09:00 24° ENE 01:10:57 10° ENE visible
25 Jul 8.2 03:06:26 29° WNW 03:09:29 55° N 03:14:16 10° ENE visible
25 Jul 7.3 05:08:29 10° WNW 05:13:38 85° NNE 05:18:03 10° ESE visible
25 Jul 10.2 22:17:46 10° SSW 22:23:00 24° S 22:23:00 24° S visible
26 Jul 10.1 00:38:11 15° ENE 00:38:11 15° ENE 00:39:03 10° ENE visible
26 Jul 8.3 02:35:37 45° WNW 02:37:16 58° N 02:42:21 10° ENE visible
26 Jul 7.4 04:36:03 10° WNW 04:41:35 77° NNE 04:46:03 10° ESE visible
26 Jul 9.7 21:45:01 10° SSW 21:55:03 32° SSE 21:55:03 32° SSE visible
26 Jul 10.5 23:49:44 10° WSW 23:52:44 20° WSW 23:52:44 20° WSW visible
27 Jul 8.3 02:04:48 61° NNW 02:05:02 61° N 02:10:26 10° ENE visible
27 Jul 7.6 04:03:31 10° WNW 04:09:30 71° NNE 04:14:05 10° E visible
27 Jul 9.9 21:12:20 10° SSW 21:22:42 30° SE 21:27:18 21° ESE visible
27 Jul 9.3 23:16:36 10° SW 23:25:00 49° SW 23:25:00 49° SW visible
28 Jul 8.6 01:34:01 54° NE 01:34:01 54° NE 01:38:32 10° ENE visible
28 Jul 7.9 03:31:27 12° WNW 03:37:23 67° NNE 03:42:07 10° E visible
28 Jul 10.1 20:39:44 10° SSW 20:50:03 27° SE 20:58:03 10° E visible
28 Jul 8.8 22:43:28 10° SW 22:55:21 66° SSE 22:57:22 54° ESE visible
29 Jul 9.2 00:50:47 10° W 01:03:17 37° ENE 01:06:37 10° ENE visible
29 Jul 8.1 03:00:44 22° WNW 03:05:12 65° N 03:10:11 10° E visible
29 Jul 7.6 05:03:49 10° WNW 05:09:00 46° SSW 05:13:15 10° SE visible
29 Jul 10.3 20:07:14 10° S 20:17:22 25° SE 20:25:29 10° E visible
29 Jul 9.0 22:10:21 10° SW 22:22:46 61° SSE 22:29:38 18° ENE visible
30 Jul 8.7 00:17:32 10° W 00:32:47 22° ENE 00:34:42 10° ENE visible
30 Jul 8.2 02:30:16 37° WNW 02:32:59 63° N 02:38:15 10° E visible
30 Jul 7.5 04:31:16 10° WNW 04:37:00 56° SSW 04:41:27 10° SE visible
30 Jul 9.3 21:37:16 10° SW 21:50:08 57° SSE 21:58:58 10° ENE visible
30 Jul 8.8 23:44:15 10° WSW 23:55:31 78° NNW 23:58:49 40° ENE visible
31 Jul 8.4 01:52:12 10° WNW 02:00:42 63° N 02:06:20 10° E visible
31 Jul 7.5 03:58:38 10° WNW 04:04:58 66° SSW 04:09:38 10° SE visible
31 Jul 9.5 21:04:13 10° SW 21:17:25 53° SSE 21:26:46 10° ENE visible
31 Jul 8.9 23:10:55 10° WSW 23:22:58 83° NNW 23:28:59 20° ENE visible
01 Aug 9.0 01:19:05 10° W 01:32:07 26° ENE 01:34:23 10° E visible
01 Aug 7.5 03:29:47 32° WNW 03:32:53 76° SSW 03:37:49 10° ESE visible
01 Aug 9.7 20:31:15 10° SW 20:44:39 49° SSE 20:54:30 10° ENE visible
01 Aug 9.0 22:37:34 10° WSW 22:50:22 87° NNW 22:58:26 11° ENE visible
